TimeEST,TemperatureF,Dew PointF,Humidity,Sea Level PressureIn,VisibilityMPH,Wind Direction,Wind SpeedMPH,Gust SpeedMPH,PrecipitationIn,Events,Conditions,WindDirDegrees,DateUTC
12:53 AM,18.0,12.0,78,30.27,9.0,NNW,4.6,-,N/A,,Clear,340,2014-02-03 05:53:00
1:53 AM,15.1,8.1,74,30.30,7.0,Calm,Calm,-,N/A,,Clear,0,2014-02-03 06:53:00
2:53 AM,12.9,8.1,81,30.29,7.0,NW,6.9,-,N/A,,Clear,320,2014-02-03 07:53:00
3:53 AM,15.1,8.1,74,30.27,10.0,NNW,9.2,-,N/A,,Clear,340,2014-02-03 08:53:00
4:53 AM,12.9,6.1,74,30.27,9.0,Calm,Calm,-,N/A,,Clear,0,2014-02-03 09:53:00
5:53 AM,8.1,3.0,80,30.29,8.0,North,5.8,-,N/A,,Clear,350,2014-02-03 10:53:00
6:53 AM,9.0,5.0,84,30.31,7.0,Calm,Calm,-,N/A,,Clear,0,2014-02-03 11:53:00
7:53 AM,7.0,1.9,80,30.33,5.0,Calm,Calm,-,N/A,,Haze,0,2014-02-03 12:53:00
8:53 AM,8.1,3.0,80,30.35,4.0,Calm,Calm,-,N/A,,Haze,0,2014-02-03 13:53:00
9:53 AM,12.9,10.0,88,30.37,7.0,Calm,Calm,-,N/A,,Clear,0,2014-02-03 14:53:00
10:53 AM,15.1,9.0,77,30.38,8.0,Calm,Calm,-,N/A,,Clear,0,2014-02-03 15:53:00
11:53 AM,19.9,12.0,71,30.37,-9999.0,North,-9999.0,-,N/A,,Unknown,0,2014-02-03 16:53:00
12:53 PM,23.0,10.9,60,30.34,10.0,Calm,Calm,-,N/A,,Unknown,0,2014-02-03 17:53:00
1:53 PM,26.1,10.0,51,30.33,10.0,Calm,Calm,-,0.05,,Clear,0,2014-02-03 18:53:00
2:53 PM,25.0,12.0,58,30.35,10.0,Calm,Calm,-,0.04,,Clear,0,2014-02-03 19:53:00
3:53 PM,25.0,10.0,53,30.35,10.0,SSW,9.2,-,N/A,,Clear,210,2014-02-03 20:53:00
4:53 PM,21.9,7.0,53,30.38,10.0,SSW,9.2,-,N/A,,Clear,210,2014-02-03 21:53:00
5:53 PM,18.0,6.1,60,30.37,10.0,SSW,5.8,-,N/A,,Clear,210,2014-02-03 22:53:00
6:53 PM,21.0,8.1,57,30.37,10.0,SW,3.5,-,N/A,,Clear,230,2014-02-03 23:53:00
7:53 PM,14.0,6.1,71,30.39,10.0,SW,5.8,-,N/A,,Clear,220,2014-02-04 00:53:00
8:53 PM,14.0,6.1,71,30.39,10.0,Calm,Calm,-,N/A,,Clear,0,2014-02-04 01:53:00
9:53 PM,10.0,5.0,80,30.40,9.0,SSW,3.5,-,N/A,,Clear,200,2014-02-04 02:53:00
10:53 PM,12.0,7.0,80,30.41,8.0,SW,4.6,-,N/A,,Clear,220,2014-02-04 03:53:00
11:53 PM,9.0,3.0,77,30.41,6.0,South,4.6,-,N/A,,Haze,190,2014-02-04 04:53:00